QPF
0.03 0.03 0.02 0.03 0.04 0.04 0.04 0.04 0.04 0.03 0.03 0.05 0.05 0.05 0.08 0.08 0.07 0.08 0.06 0.04 0.05 0.06 0.04 0.04 0.05 0.05 0.06 0.07 0.07 0.06 0.06 0.06 0.06 0.06 0.06 0.04 0.02 0.02 0.03 0.03 0.04 0.06 0.06
0.04 0.04 0.04 0.04 0.03 0.04 0.04 0.04 0.04 0.04 0.03 0.04 0.07 0.05 0.06 0.06 0.06 0.06 0.07 0.04 0.04 0.04 0.04 0.04 0.05 0.05 0.05 0.06 0.06 0.05 0.05 0.07 0.07 0.07 0.07 0.04 0.03 0.03 0.02 0.02 0.04 0.06 0.05
0.04 0.04 0.03 0.04 0.03 0.03 0.04 0.05 0.03 0.03 0.03 0.05 0.10 0.12 0.06 0.05 0.05 0.05 0.06 0.06 0.04 0.03 0.02 0.03 0.04 0.04 0.05 0.05 0.05 0.04 0.03 0.03 0.04 0.02 0.02 0.02 0.01 0.02 0.02 0.03 0.05 0.05 0.04
0.03 0.04 0.02 0.03 0.03 0.04 0.04 0.05 0.04 0.04 0.04 0.04 0.04 0.05 0.05 0.07 0.06 0.05 0.06 0.05 0.04 0.02 0.02 0.03 0.04 0.05 0.05 0.05 0.05 0.04 0.03 0.03 0.02 0.02 0.02 0.02 0.01 0.02 0.02 0.03 0.04 0.05 0.04
0.02 0.03 0.03 0.03 0.03 0.03 0.03 0.04 0.05 0.05 0.04 0.04 0.06 0.05 0.06 0.05 0.04 0.05 0.06 0.04 0.05 0.05 0.03 0.03 0.03 0.03 0.03 0.04 0.06 0.06 0.04 0.02 0.04 0.04 0.04 0.03 0.03 0.02 0.02 0.03 0.03 0.05 0.05
0.03 0.03 0.04 0.04 0.03 0.03 0.02 0.04 0.08 0.07 0.06 0.07 0.09 0.07 0.07 0.04 0.04 0.06 0.06 0.06 0.05 0.06 0.06 0.06 0.05 0.06 0.07 0.06 0.06 0.06 0.05 0.05 0.06 0.05 0.04 0.04 0.04 0.03 0.03 0.03 0.04 0.05 0.06
0.03 0.03 0.03 0.03 0.03 0.02 0.02 0.03 0.05 0.04 0.06 0.09 0.09 0.10 0.09 0.07 0.06 0.06 0.07 0.07 0.07 0.07 0.10 0.12 0.08 0.05 0.04 0.05 0.05 0.06 0.05 0.05 0.05 0.04 0.02 0.02 0.02 0.03 0.03 0.03 0.03 0.03 0.03
0.03 0.03 0.03 0.02 0.03 0.03 0.03 0.02 0.02 0.01 0.03 0.09 0.12 0.10 0.08 0.08 0.07 0.08 0.09 0.07 0.07 0.08 0.08 0.09 0.09 0.07 0.04 0.04 0.03 0.04 0.03 0.03 0.04 0.05 0.03 0.02 0.01 0.02 0.02 0.03 0.02 0.02 0.02
0.03 0.03 0.03 0.04 0.04 0.04 0.04 0.03 0.05 0.03 0.03 0.07 0.13 0.12 0.08 0.07 0.04 0.04 0.07 0.06 0.08 0.13 0.11 0.14 0.13 0.07 0.05 0.07 0.06 0.04 0.04 0.04 0.05 0.06 0.05 0.03 0.02 0.01 0.01 0.02 0.02 0.03 0.02
0.03 0.03 0.03 0.04 0.04 0.04 0.04 0.04 0.04 0.03 0.04 0.06 0.11 0.09 0.06 0.05 0.05 0.03 0.06 0.06 0.06 0.06 0.08 0.10 0.11 0.11 0.09 0.09 0.09 0.07 0.05 0.04 0.04 0.07 0.09 0.07 0.05 0.02 0.02 0.02 0.03 0.03 0.05
0.01 0.02 0.02 0.02 0.03 0.04 0.04 0.04 0.04 0.05 0.05 0.05 0.08 0.09 0.08 0.07 0.07 0.05 0.05 0.05 0.06 0.05 0.07 0.10 0.08 0.09 0.09 0.10 0.09 0.08 0.06 0.04 0.03 0.04 0.06 0.08 0.07 0.05 0.03 0.02 0.02 0.03 0.05
0.02 0.01 0.01 0.01 0.02 0.02 0.02 0.02 0.04 0.04 0.04 0.04 0.05 0.08 0.08 0.08 0.09 0.07 0.05 0.03 0.03 0.05 0.05 0.05 0.05 0.06 0.09 0.12 0.07 0.07 0.07 0.05 0.04 0.04 0.04 0.05 0.05 0.04 0.04 0.03 0.04 0.05 0.07
0.02 0.02 0.01 0.01 0.01 0.01 0.01 0.02 0.02 0.02 0.03 0.03 0.04 0.05 0.08 0.08 0.10 0.09 0.07 0.06 0.04 0.05 0.05 0.04 0.03 0.03 0.05 0.05 0.05 0.07 0.06 0.06 0.05 0.04 0.03 0.05 0.05 0.03 0.03 0.03 0.04 0.05 0.06
0.02 0.02 0.02 0.02 0.01 0.01 0.01 0.02 0.02 0.02 0.03 0.04 0.06 0.08 0.06 0.06 0.08 0.09 0.08 0.08 0.06 0.05 0.04 0.03 0.03 0.03 0.05 0.05 0.05 0.05 0.04 0.05 0.05 0.05 0.04 0.05 0.04 0.03 0.02 0.02 0.02 0.02 0.03
0.02 0.03 0.03 0.03 0.04 0.04 0.04 0.04 0.03 0.04 0.04 0.04 0.04 0.07 0.09 0.07 0.08 0.08 0.09 0.08 0.06 0.06 0.06 0.06 0.07 0.05 0.05 0.05 0.04 0.04 0.04 0.06 0.06 0.05 0.04 0.03 0.03 0.02 0.02 0.01 0.01 0.02 0.02
0.04 0.04 0.04 0.04 0.05 0.07 0.08 0.07 0.06 0.06 0.06 0.06 0.07 0.07 0.07 0.07 0.05 0.06 0.08 0.10 0.07 0.06 0.06 0.06 0.06 0.05 0.05 0.04 0.04 0.05 0.07 0.08 0.08 0.07 0.06 0.04 0.02 0.01 0.01 0.01 0.01 0.02 0.02
0.06 0.05 0.05 0.06 0.08 0.11 0.11 0.08 0.05 0.05 0.05 0.04 0.04 0.04 0.04 0.04 0.03 0.04 0.06 0.08 0.07 0.05 0.04 0.04 0.04 0.03 0.04 0.03 0.04 0.05 0.06 0.07 0.07 0.06 0.05 0.05 0.03 0.02 0.01 0.01 0.01 0.01 0.01
0.06 0.05 0.04 0.04 0.05 0.06 0.06 0.05 0.04 0.03 0.03 0.02 0.02 0.02 0.02 0.02 0.02 0.03 0.05 0.05 0.05 0.05 0.04 0.04 0.04 0.03 0.04 0.04 0.04 0.04 0.02 0.03 0.04 0.04 0.05 0.06 0.05 0.03 0.02 0.02 0.01 0.01 0.01
0.08 0.06 0.04 0.02 0.02 0.01 0.02 0.02 0.01 0.01 0.01 0.01 0.01 0.01 0.01 0.01 0.01 0.01 0.01 0.02 0.03 0.04 0.03 0.03 0.04 0.03 0.02 0.02 0.03 0.03 0.03 0.03 0.03 0.03 0.04 0.05 0.05 0.05 0.04 0.03 0.03 0.02 0.01
0.06 0.05 0.03 0.02 0.01 0.00 0.01 0.01 0.01 0.00 0.01 0.01 0.01 0.02 0.02 0.02 0.02 0.01 0.01 0.01 0.01 0.03 0.04 0.04 0.04 0.04 0.03 0.02 0.02 0.02 0.03 0.04 0.05 0.04 0.04 0.04 0.03 0.04 0.04 0.04 0.03 0.03 0.03
0.02 0.01 0.01 0.00 0.01 0.01 0.01 0.01 0.01 0.01 0.01 0.01 0.01 0.01 0.02 0.02 0.02 0.02 0.02 0.02 0.02 0.03 0.04 0.04 0.04 0.04 0.04 0.03 0.03 0.02 0.03 0.04 0.05 0.06 0.06 0.05 0.04 0.04 0.04 0.04 0.04 0.03 0.02
0.02 0.02 0.01 0.00 0.00 0.01 0.01 0.01 0.01 0.01 0.01 0.01 0.01 0.02 0.02 0.02 0.03 0.03 0.03 0.02 0.02 0.03 0.03 0.03 0.03 0.03 0.05 0.04 0.04 0.04 0.03 0.04 0.05 0.06 0.06 0.06 0.05 0.05 0.04 0.04 0.05 0.04 0.04
0.02 0.02 0.02 0.01 0.01 0.01 0.01 0.01 0.01 0.01 0.01 0.02 0.02 0.03 0.03 0.03 0.03 0.04 0.03 0.02 0.02 0.02 0.02 0.02 0.02 0.02 0.03 0.03 0.04 0.04 0.03 0.03 0.03 0.05 0.05 0.05 0.05 0.06 0.06 0.06 0.05 0.04 0.04
0.02 0.02 0.02 0.03 0.02 0.02 0.02 0.02 0.01 0.01 0.01 0.01 0.01 0.03 0.04 0.05 0.05 0.05 0.04 0.03 0.02 0.02 0.02 0.02 0.02 0.02 0.01 0.02 0.03 0.03 0.03 0.02 0.02 0.02 0.04 0.03 0.02 0.03 0.04 0.05 0.06 0.05 0.04
0.03 0.02 0.03 0.03 0.02 0.03 0.03 0.02 0.01 0.01 0.01 0.01 0.01 0.02 0.02 0.03 0.03 0.03 0.04 0.04 0.04 0.03 0.03 0.02 0.02 0.02 0.02 0.01 0.02 0.03 0.02 0.02 0.01 0.01 0.02 0.02 0.02 0.02 0.03 0.04 0.04 0.05 0.05
0.03 0.03 0.02 0.02 0.02 0.02 0.03 0.02 0.02 0.01 0.01 0.01 0.01 0.01 0.01 0.02 0.02 0.02 0.02 0.02 0.03 0.03 0.03 0.03 0.03 0.03 0.02 0.02 0.01 0.01 0.02 0.02 0.01 0.01 0.01 0.02 0.02 0.02 0.02 0.02 0.03 0.03 0.05
MSLP
1010.79 1010.62 1010.39 1010.13 1009.88 1009.67 1009.54 1009.50 1009.54 1009.65 1009.79 1009.94 1010.05 1010.11 1010.13 1010.11 1010.09 1010.08 1010.13 1010.22 1010.38 1010.58 1010.82 1011.06 1011.29 1011.50 1011.70 1011.88 1012.06 1012.24 1012.44 1012.67 1012.92 1013.18 1013.46 1013.74 1014.01 1014.27 1014.51 1014.75 1014.97 1015.20 1015.43
1010.74 1010.59 1010.39 1010.16 1009.93 1009.74 1009.60 1009.54 1009.55 1009.62 1009.73 1009.83 1009.90 1009.93 1009.90 1009.84 1009.76 1009.71 1009.70 1009.75 1009.87 1010.06 1010.30 1010.56 1010.82 1011.07 1011.29 1011.49 1011.67 1011.85 1012.03 1012.23 1012.47 1012.72 1013.00 1013.30 1013.59 1013.87 1014.14 1014.39 1014.62 1014.85 1015.08
1010.60 1010.49 1010.34 1010.17 1010.00 1009.84 1009.72 1009.65 1009.64 1009.67 1009.73 1009.78 1009.80 1009.77 1009.69 1009.57 1009.44 1009.31 1009.23 1009.22 1009.29 1009.44 1009.66 1009.92 1010.20 1010.47 1010.72 1010.93 1011.12 1011.29 1011.47 1011.66 1011.88 1012.13 1012.41 1012.72 1013.04 1013.35 1013.65 1013.93 1014.19 1014.43 1014.67
1010.37 1010.30 1010.21 1010.12 1010.01 1009.91 1009.82 1009.76 1009.73 1009.73 1009.74 1009.74 1009.71 1009.63 1009.50 1009.32 1009.11 1008.92 1008.76 1008.67 1008.67 1008.76 1008.93 1009.16 1009.43 1009.71 1009.96 1010.19 1010.39 1010.56 1010.73 1010.92 1011.13 1011.39 1011.68 1012.00 1012.35 1012.69 1013.03 1013.34 1013.64 1013.91 1014.18
1010.04 1010.00 1009.98 1009.96 1009.93 1009.89 1009.85 1009.80 1009.77 1009.74 1009.71 1009.67 1009.59 1009.47 1009.30 1009.07 1008.81 1008.55 1008.31 1008.13 1008.04 1008.05 1008.15 1008.33 1008.56 1008.81 1009.06 1009.29 1009.49 1009.67 1009.85 1010.04 1010.26 1010.52 1010.82 1011.16 1011.52 1011.90 1012.26 1012.62 1012.95 1013.26 1013.55
1009.62 1009.60 1009.62 1009.67 1009.70 1009.72 1009.72 1009.70 1009.67 1009.63 1009.58 1009.51 1009.42 1009.28 1009.08 1008.83 1008.54 1008.22 1007.91 1007.65 1007.47 1007.37 1007.38 1007.47 1007.64 1007.85 1008.07 1008.29 1008.49 1008.68 1008.87 1009.07 1009.30 1009.56 1009.88 1010.23 1010.61 1011.00 1011.39 1011.77 1012.13 1012.47 1012.80
1009.17 1009.15 1009.19 1009.27 1009.34 1009.40 1009.43 1009.42 1009.39 1009.35 1009.30 1009.23 1009.15 1009.02 1008.84 1008.59 1008.29 1007.95 1007.59 1007.25 1006.97 1006.77 1006.66 1006.65 1006.73 1006.87 1007.05 1007.25 1007.45 1007.64 1007.84 1008.06 1008.30 1008.59 1008.91 1009.27 1009.66 1010.06 1010.46 1010.85 1011.22 1011.58 1011.94
1008.76 1008.71 1008.74 1008.81 1008.89 1008.95 1008.98 1008.97 1008.94 1008.91 1008.86 1008.82 1008.77 1008.68 1008.54 1008.33 1008.05 1007.71 1007.32 1006.92 1006.55 1006.24 1006.02 1005.90 1005.88 1005.94 1006.06 1006.22 1006.41 1006.61 1006.82 1007.06 1007.33 1007.63 1007.96 1008.33 1008.71 1009.11 1009.51 1009.89 1010.27 1010.63 1010.99
1008.47 1008.37 1008.34 1008.37 1008.41 1008.43 1008.43 1008.41 1008.37 1008.33 1008.30 1008.30 1008.29 1008.26 1008.18 1008.04 1007.80 1007.47 1007.07 1006.63 1006.19 1005.79 1005.46 1005.22 1005.09 1005.06 1005.11 1005.22 1005.39 1005.59 1005.82 1006.08 1006.37 1006.69 1007.04 1007.41 1007.80 1008.19 1008.57 1008.94 1009.30 1009.66 1010.02
1008.37 1008.19 1008.10 1008.04 1008.01 1007.96 1007.90 1007.83 1007.76 1007.71 1007.69 1007.71 1007.75 1007.79 1007.78 1007.70 1007.51 1007.22 1006.82 1006.35 1005.85 1005.36 1004.93 1004.58 1004.34 1004.21 1004.18 1004.25 1004.38 1004.57 1004.81 1005.09 1005.40 1005.75 1006.12 1006.50 1006.89 1007.27 1007.64 1008.00 1008.34 1008.68 1009.02
1008.48 1008.24 1008.06 1007.90 1007.77 1007.63 1007.48 1007.34 1007.22 1007.14 1007.12 1007.15 1007.23 1007.31 1007.36 1007.33 1007.19 1006.92 1006.53 1006.04 1005.49 1004.93 1004.40 1003.95 1003.61 1003.38 1003.27 1003.26 1003.35 1003.52 1003.75 1004.03 1004.37 1004.73 1005.13 1005.53 1005.93 1006.32 1006.69 1007.04 1007.37 1007.69 1008.02
1008.79 1008.50 1008.23 1007.99 1007.75 1007.51 1007.27 1007.04 1006.86 1006.73 1006.69 1006.71 1006.79 1006.90 1006.97 1006.98 1006.86 1006.61 1006.22 1005.71 1005.12 1004.49 1003.89 1003.34 1002.89 1002.56 1002.35 1002.26 1002.28 1002.40 1002.60 1002.87 1003.21 1003.59 1004.00 1004.43 1004.86 1005.27 1005.65 1006.01 1006.35 1006.67 1006.99
1009.27 1008.94 1008.61 1008.29 1007.96 1007.63 1007.30 1007.00 1006.75 1006.57 1006.48 1006.47 1006.54 1006.63 1006.70 1006.70 1006.59 1006.34 1005.94 1005.40 1004.77 1004.10 1003.42 1002.78 1002.23 1001.79 1001.47 1001.28 1001.20 1001.23 1001.37 1001.60 1001.91 1002.29 1002.71 1003.17 1003.63 1004.08 1004.50 1004.89 1005.25 1005.59 1005.93
1009.83 1009.49 1009.13 1008.76 1008.38 1007.98 1007.59 1007.23 1006.92 1006.69 1006.55 1006.50 1006.52 1006.57 1006.61 1006.59 1006.45 1006.18 1005.75 1005.20 1004.53 1003.81 1003.06 1002.35 1001.70 1001.15 1000.70 1000.38 1000.17 1000.09 1000.12 1000.27 1000.53 1000.87 1001.29 1001.76 1002.25 1002.75 1003.22 1003.67 1004.08 1004.46 1004.83
1010.39 1010.06 1009.70 1009.33 1008.92 1008.51 1008.09 1007.70 1007.35 1007.08 1006.90 1006.80 1006.76 1006.76 1006.75 1006.68 1006.51 1006.20 1005.75 1005.17 1004.48 1003.72 1002.92 1002.14 1001.39 1000.72 1000.14 999.67 999.31 999.08 998.97 999.00 999.16 999.44 999.83 1000.29 1000.81 1001.35 1001.88 1002.40 1002.87 1003.32 1003.74
1010.86 1010.57 1010.25 1009.90 1009.53 1009.13 1008.72 1008.34 1007.98 1007.69 1007.47 1007.33 1007.25 1007.19 1007.12 1007.00 1006.79 1006.45 1005.98 1005.38 1004.68 1003.89 1003.06 1002.22 1001.39 1000.61 999.90 999.27 998.75 998.34 998.07 997.95 997.98 998.16 998.48 998.92 999.44 1000.00 1000.59 1001.17 1001.71 1002.23 1002.71
1011.22 1010.97 1010.70 1010.41 1010.09 1009.75 1009.39 1009.04 1008.70 1008.42 1008.19 1008.02 1007.90 1007.79 1007.68 1007.52 1007.27 1006.91 1006.43 1005.84 1005.14 1004.35 1003.50 1002.62 1001.74 1000.87 1000.04 999.27 998.58 998.01 997.56 997.27 997.16 997.22 997.45 997.82 998.31 998.88 999.49 1000.12 1000.72 1001.30 1001.84
1011.44 1011.24 1011.04 1010.81 1010.56 1010.29 1010.00 1009.70 1009.41 1009.14 1008.92 1008.74 1008.59 1008.46 1008.31 1008.12 1007.86 1007.50 1007.03 1006.45 1005.78 1005.01 1004.18 1003.29 1002.38 1001.46 1000.54 999.67 998.85 998.13 997.53 997.08 996.82 996.75 996.86 997.15 997.58 998.12 998.73 999.37 1000.01 1000.62 1001.21
1011.56 1011.40 1011.25 1011.09 1010.91 1010.71 1010.48 1010.24 1009.99 1009.76 1009.55 1009.37 1009.21 1009.06 1008.90 1008.70 1008.44 1008.10 1007.65 1007.11 1006.48 1005.76 1004.97 1004.11 1003.21 1002.28 1001.33 1000.40 999.50 998.68 997.97 997.40 997.01 996.81 996.81 997.00 997.35 997.82 998.39 999.00 999.64 1000.26 1000.87
1011.62 1011.49 1011.38 1011.27 1011.14 1010.99 1010.82 1010.62 1010.40 1010.19 1009.99 1009.82 1009.65 1009.50 1009.34 1009.14 1008.89 1008.57 1008.16 1007.67 1007.10 1006.44 1005.72 1004.92 1004.08 1003.18 1002.26 1001.33 1000.42 999.56 998.79 998.15 997.67 997.38 997.28 997.36 997.61 998.00 998.49 999.04 999.63 1000.22 1000.82
1011.68 1011.56 1011.47 1011.38 1011.28 1011.16 1011.01 1010.82 1010.62 1010.42 1010.22 1010.03 1009.87 1009.71 1009.54 1009.35 1009.11 1008.82 1008.46 1008.02 1007.51 1006.93 1006.29 1005.58 1004.82 1004.01 1003.16 1002.29 1001.43 1000.60 999.84 999.19 998.67 998.32 998.14 998.14 998.29 998.57 998.96 999.42 999.93 1000.46 1000.99
1011.76 1011.64 1011.55 1011.47 1011.37 1011.24 1011.08 1010.89 1010.68 1010.46 1010.24 1010.04 1009.86 1009.68 1009.51 1009.32 1009.09 1008.82 1008.49 1008.10 1007.65 1007.15 1006.59 1005.98 1005.33 1004.63 1003.90 1003.14 1002.38 1001.64 1000.94 1000.33 999.83 999.47 999.24 999.17 999.23 999.41 999.69 1000.03 1000.43 1000.87 1001.32
1011.86 1011.74 1011.65 1011.55 1011.44 1011.29 1011.10 1010.88 1010.63 1010.38 1010.13 1009.90 1009.69 1009.49 1009.30 1009.09 1008.86 1008.60 1008.29 1007.94 1007.54 1007.09 1006.62 1006.10 1005.56 1004.98 1004.38 1003.76 1003.14 1002.52 1001.94 1001.41 1000.96 1000.61 1000.37 1000.25 1000.24 1000.33 1000.49 1000.73 1001.01 1001.33 1001.68
1011.97 1011.86 1011.76 1011.65 1011.51 1011.33 1011.11 1010.85 1010.56 1010.27 1009.98 1009.71 1009.46 1009.23 1009.01 1008.78 1008.54 1008.26 1007.96 1007.62 1007.25 1006.85 1006.43 1006.00 1005.55 1005.09 1004.62 1004.14 1003.65 1003.16 1002.70 1002.27 1001.90 1001.59 1001.36 1001.21 1001.15 1001.16 1001.23 1001.36 1001.53 1001.73 1001.97
1012.06 1011.96 1011.86 1011.74 1011.58 1011.38 1011.13 1010.84 1010.52 1010.20 1009.88 1009.57 1009.29 1009.03 1008.77 1008.51 1008.24 1007.94 1007.62 1007.28 1006.92 1006.54 1006.17 1005.79 1005.42 1005.05 1004.67 1004.30 1003.93 1003.56 1003.21 1002.87 1002.56 1002.30 1002.09 1001.94 1001.84 1001.79 1001.79 1001.82 1001.90 1002.00 1002.14
1012.06 1011.98 1011.90 1011.79 1011.63 1011.43 1011.17 1010.87 1010.55 1010.21 1009.87 1009.54 1009.24 1008.94 1008.66 1008.37 1008.06 1007.74 1007.40 1007.04 1006.68 1006.31 1005.96 1005.61 1005.29 1004.97 1004.67 1004.37 1004.08 1003.79 1003.50 1003.23 1002.97 1002.74 1002.55 1002.39 1002.26 1002.18 1002.12 1002.09 1002.08 1002.10 1002.15
Thickness
5773 5773 5772 5771 5770 5768 5767 5767 5766 5766 5765 5765 5765 5764 5763 5762 5761 5760 5759 5759 5758 5757 5755 5754 5752 5750 5749 5747 5746 5744 5743 5741 5740 5738 5738 5737 5736 5735 5734 5733 5732 5732 5732
5774 5773 5771 5770 5769 5768 5767 5767 5766 5766 5765 5765 5764 5764 5763 5762 5761 5759 5758 5758 5757 5756 5755 5753 5751 5749 5748 5746 5744 5743 5742 5740 5739 5737 5736 5735 5734 5734 5733 5732 5731 5731 5730
5774 5773 5771 5769 5769 5768 5767 5766 5766 5765 5764 5764 5762 5762 5762 5761 5760 5759 5758 5756 5755 5754 5752 5751 5749 5748 5747 5745 5743 5741 5740 5739 5738 5736 5735 5734 5733 5733 5732 5731 5730 5729 5729
5774 5772 5770 5769 5768 5767 5766 5765 5764 5762 5762 5761 5760 5760 5760 5760 5759 5758 5757 5755 5753 5752 5751 5750 5748 5747 5745 5743 5742 5740 5739 5738 5736 5735 5734 5733 5732 5731 5730 5729 5729 5728 5727
5773 5772 5769 5768 5768 5767 5765 5764 5762 5761 5759 5759 5759 5759 5759 5758 5758 5757 5756 5754 5753 5751 5750 5748 5747 5745 5744 5743 5741 5740 5738 5737 5735 5734 5732 5731 5730 5729 5729 5728 5728 5727 5726
5773 5771 5768 5767 5766 5764 5762 5761 5759 5759 5758 5757 5758 5757 5757 5757 5757 5756 5755 5753 5751 5750 5748 5747 5745 5744 5742 5741 5740 5739 5737 5736 5734 5733 5732 5730 5729 5728 5727 5727 5726 5725 5725
5771 5769 5767 5765 5764 5761 5760 5759 5757 5755 5754 5755 5752 5749 5752 5754 5754 5754 5753 5751 5750 5748 5746 5745 5744 5742 5741 5740 5739 5737 5736 5734 5733 5732 5730 5729 5728 5727 5726 5725 5725 5724 5723
5770 5768 5765 5763 5761 5759 5757 5756 5754 5751 5751 5752 5746 5741 5738 5741 5746 5751 5750 5749 5748 5746 5745 5743 5741 5740 5739 5738 5738 5736 5735 5733 5731 5730 5729 5727 5726 5725 5724 5724 5723 5722 5721
5768 5766 5763 5761 5759 5757 5754 5753 5752 5750 5746 5747 5746 5740 5732 5729 5735 5742 5744 5745 5745 5743 5742 5741 5740 5739 5737 5737 5736 5735 5733 5731 5730 5729 5727 5726 5725 5724 5723 5722 5721 5721 5720
5765 5763 5761 5759 5757 5755 5753 5752 5751 5749 5746 5741 5742 5742 5740 5737 5730 5729 5735 5739 5741 5740 5740 5740 5738 5737 5736 5734 5733 5732 5731 5730 5729 5727 5726 5725 5724 5723 5722 5721 5720 5720 5719
5762 5760 5758 5756 5754 5752 5751 5749 5748 5747 5745 5741 5738 5737 5736 5735 5733 5727 5724 5729 5733 5736 5737 5737 5736 5735 5734 5732 5731 5730 5729 5728 5727 5725 5725 5724 5722 5721 5720 5719 5718 5718 5717
5757 5756 5755 5753 5751 5749 5748 5746 5745 5743 5742 5740 5738 5736 5733 5730 5727 5725 5722 5722 5724 5729 5732 5733 5733 5732 5732 5730 5729 5727 5726 5725 5724 5723 5722 5722 5720 5719 5718 5717 5716 5716 5716
5752 5752 5752 5750 5748 5746 5745 5743 5741 5739 5738 5736 5734 5733 5732 5730 5728 5726 5722 5719 5719 5722 5725 5727 5729 5729 5729 5727 5726 5725 5723 5722 5721 5720 5719 5718 5717 5716 5715 5715 5714 5714 5713
5750 5750 5748 5746 5744 5743 5741 5739 5737 5735 5734 5732 5731 5729 5728 5728 5727 5725 5721 5717 5713 5714 5716 5718 5722 5723 5723 5723 5722 5721 5720 5719 5717 5716 5716 5715 5714 5713 5712 5712 5711 5710 5710
5749 5747 5745 5743 5740 5738 5736 5734 5731 5730 5729 5727 5725 5725 5723 5723 5723 5722 5720 5717 5711 5705 5706 5711 5714 5718 5718 5717 5717 5716 5715 5715 5713 5712 5711 5710 5710 5709 5709 5708 5707 5707 5707
5745 5742 5740 5738 5735 5733 5730 5728 5726 5724 5723 5721 5720 5719 5717 5717 5716 5716 5715 5713 5711 5706 5702 5706 5708 5711 5712 5713 5712 5711 5710 5709 5708 5707 5706 5706 5705 5705 5704 5704 5703 5703 5703
5740 5737 5735 5733 5730 5727 5725 5722 5720 5718 5717 5715 5714 5713 5711 5710 5709 5709 5708 5707 5705 5703 5698 5700 5703 5705 5705 5704 5705 5705 5704 5703 5702 5702 5701 5701 5700 5700 5699 5699 5699 5699 5699
5735 5733 5731 5728 5725 5723 5721 5718 5715 5713 5711 5709 5708 5706 5705 5705 5702 5702 5701 5699 5698 5698 5694 5693 5694 5695 5696 5697 5697 5697 5698 5698 5697 5697 5696 5695 5695 5694 5694 5694 5693 5693 5693
5731 5729 5726 5723 5720 5718 5716 5714 5711 5708 5706 5704 5702 5700 5699 5697 5695 5694 5694 5692 5692 5692 5689 5687 5686 5687 5688 5689 5689 5689 5690 5690 5691 5691 5690 5690 5689 5688 5688 5688 5688 5687 5687
5727 5724 5722 5719 5716 5714 5712 5709 5707 5704 5701 5699 5698 5696 5694 5691 5689 5688 5688 5686 5685 5683 5681 5679 5678 5678 5678 5680 5680 5678 5679 5680 5681 5683 5683 5683 5683 5682 5682 5682 5681 5681 5681
5723 5720 5717 5714 5711 5709 5708 5705 5702 5700 5696 5694 5692 5690 5689 5688 5686 5684 5682 5679 5678 5675 5673 5671 5669 5669 5669 5669 5669 5670 5669 5670 5671 5673 5673 5675 5675 5675 5675 5675 5675 5675 5675
5717 5714 5711 5709 5707 5705 5703 5701 5698 5694 5691 5688 5686 5684 5683 5682 5680 5678 5677 5675 5673 5670 5667 5664 5662 5661 5661 5661 5662 5662 5660 5659 5660 5664 5664 5665 5667 5666 5667 5668 5669 5669 5668
5712 5708 5706 5704 5701 5700 5698 5696 5693 5689 5686 5683 5680 5678 5677 5676 5674 5671 5670 5669 5667 5666 5664 5660 5657 5656 5655 5656 5655 5654 5653 5652 5652 5656 5656 5656 5657 5657 5660 5662 5662 5662 5662
5706 5703 5701 5699 5696 5694 5692 5689 5687 5683 5680 5677 5675 5673 5670 5668 5668 5664 5662 5660 5659 5658 5657 5656 5654 5653 5653 5651 5650 5649 5648 5647 5646 5648 5649 5646 5649 5650 5654 5654 5655 5655 5655
5700 5698 5696 5694 5691 5688 5687 5683 5680 5676 5673 5671 5669 5667 5665 5662 5661 5658 5655 5652 5651 5650 5651 5650 5649 5648 5647 5646 5645 5642 5640 5637 5636 5638 5640 5639 5640 5641 5644 5646 5647 5648 5648
5695 5693 5691 5689 5686 5683 5681 5677 5674 5670 5666 5663 5662 5660 5659 5656 5654 5652 5648 5645 5643 5642 5642 5642 5641 5641 5640 5639 5638 5636 5634 5630 5629 5629 5633 5632 5632 5631 5632 5636 5638 5639 5639